Location: Paris
(48.6709°N, 2.3750°E)
Time: 10:38:18
(UTC+02:00)

BEESAT 2 - Pass Details

Date: 30 June 2022
Orbit: 481 x 508 km, 64.9° (Epoch: 10 August)

Event Time Altitude Azimuth Distance (km) Brightness Sun altitude
Rises 22:31:19 0° 307° (NW) 2,629 ? -5.1°
Reaches altitude 10° 22:34:07 10° 286° (WNW) 1,739 ? -5.5°
Maximum altitude 22:36:34 16° 247° (WSW) 1,388 ? -5.7°
Drops below altitude 10° 22:39:00 10° 208° (SSW) 1,730 ? -6.0°
Sets 22:41:47 0° 186° (S) 2,608 ? -6.3°
